Fort Polk, LA

5:35 PM CDT on September 24, 2017 (GMT -0500)
Fort Polk

Weather History for KBKB - February, 2013

Change the Weather History Date:

Saturday, February 9, 2013

  Actual Average (KPOE) Record (KPOE)
Temperature  
Mean Temperature 53 °F -  
Max Temperature 62 °F 60 °F 80 °F (1999)
Min Temperature 44 °F 42 °F 30 °F (2011)
Degree Days  
Heating Degree Days 12    
Growing Degree Days 3 (Base 50)    
Moisture  
Dew Point 49 °F    
Average Humidity 82    
Maximum Humidity 87    
Minimum Humidity 74    
Precipitation  
Precipitation 0.00 in - - ()
Sea Level Pressure  
Sea Level Pressure 30.25 in    
Wind  
Wind Speed 2 mph (East)    
Max Wind Speed 7 mph    
Max Gust Speed -    
Visibility 10 miles    
Events      
Averages and records for this station are not official NWS values.
T = Trace of Precipitation, MM = Missing Value Source: NWS Daily Summary

Daily Weather History Graph

Daily Weather History Graph

Search for Another Location

Airport or City:

Trip Planner

Search our weather history database for the weather conditions in past years. The results will help you decide how hot, cold, wet, or windy it might be!

Date:

Astronomy

Feb. 09, 2013 Rise Set
Actual Time 6:57 AM CST 5:54 PM CST
Civil Twilight 6:32 AM CST 6:19 PM CST
Nautical Twilight 6:04 AM CST 6:48 PM CST
Astronomical Twilight 5:35 AM CST 7:16 PM CST
Moon 6:10 AM CST (2/9) 5:35 PM CST (2/9)
Length of Visible Light 11h 46m
Length of Day
10h 56m
Waning Crescent, 0% of the Moon is Illuminated
Feb 9
Waning Crescent
Feb 10
New
Feb 17
First Quarter
Feb 25
Full
Mar 4
Last Quarter

Hourly Weather History & Observations

Time (CST) Temp. Windchill Dew Point Humidity Pressure Visibility Wind Dir Wind Speed Gust Speed Precip Events Conditions
12:54 AM 46.0 °F - 42.1 °F 86% 30.97 in 10.0 mi Calm Calm - N/A   Scattered Clouds
1:02 AM 46.4 °F 45.2 °F 42.8 °F 87% 30.15 in 10.0 mi Variable 3.5 mph - N/A   Mostly Cloudy
1:54 AM 46.9 °F - 42.1 °F 83% 30.23 in 10.0 mi Calm Calm - N/A   Overcast
2:54 AM 46.9 °F - 42.1 °F 83% 30.95 in 10.0 mi Calm Calm - N/A   Overcast
3:54 AM 46.9 °F - 42.1 °F 83% 30.22 in 10.0 mi Calm Calm - N/A   Overcast
4:45 AM 46.4 °F 45.2 °F 42.8 °F 87% 30.14 in 10.0 mi NE 3.5 mph - N/A   Overcast
4:54 AM 46.0 °F 43.9 °F 41.0 °F 83% 30.22 in 10.0 mi Variable 4.6 mph - N/A   Overcast
5:45 AM 44.6 °F - 41.0 °F 87% 30.14 in 9.0 mi Calm Calm - N/A   Overcast
5:54 AM 45.0 °F 43.5 °F 41.0 °F 86% 30.22 in 9.0 mi Variable 3.5 mph - N/A   Overcast
6:06 AM 44.6 °F - 41.0 °F 87% 30.14 in 8.0 mi Calm Calm - N/A   Overcast
6:54 AM 45.0 °F - 41.0 °F 86% 30.24 in 9.0 mi Calm Calm - N/A   Overcast
7:52 AM 46.4 °F 45.2 °F 42.8 °F 87% 30.17 in 8.0 mi Variable 3.5 mph - N/A   Overcast
7:54 AM 46.0 °F 43.9 °F 42.1 °F 86% 30.26 in 8.0 mi NE 4.6 mph - N/A   Overcast
8:54 AM 48.0 °F - 44.1 °F 86% 30.26 in 10.0 mi Variable 3.5 mph - N/A   Overcast
9:54 AM 51.1 °F - 45.0 °F 80% 30.26 in 10.0 mi Variable 3.5 mph - N/A   Overcast
10:54 AM 54.0 °F - 48.0 °F 80% 30.24 in 10.0 mi Variable 3.5 mph - N/A   Overcast
11:54 AM 57.0 °F - 48.9 °F 74% 30.21 in 10.0 mi Variable 4.6 mph - N/A   Overcast
12:54 PM 59.0 °F - 51.1 °F 75% 30.90 in 10.0 mi SE 4.6 mph - N/A   Overcast
1:54 PM 60.1 °F - 52.0 °F 75% 30.15 in 10.0 mi Variable 3.5 mph - N/A   Overcast
2:54 PM 60.1 °F - 53.1 °F 78% 30.12 in 10.0 mi ESE 4.6 mph - N/A   Overcast
3:54 PM 62.1 °F - 54.0 °F 75% 30.11 in 10.0 mi Calm Calm - N/A   Overcast
4:54 PM 62.1 °F - 55.0 °F 78% 30.10 in 10.0 mi Calm Calm - N/A   Overcast
5:32 PM 60.8 °F - 55.4 °F 82% 30.00 in 10.0 mi Calm Calm - N/A   Overcast
5:54 PM 60.1 °F - 55.0 °F 83% 30.80 in 10.0 mi Calm Calm - N/A   Mostly Cloudy
6:54 PM 60.1 °F - 55.0 °F 83% 30.79 in 10.0 mi Calm Calm - N/A   Overcast
7:29 PM 60.8 °F - 55.4 °F 82% 29.97 in 10.0 mi Variable 4.6 mph - N/A   Mostly Cloudy
7:36 PM 62.6 °F - 55.4 °F 77% 29.96 in 10.0 mi Variable 5.8 mph - N/A   Mostly Cloudy
7:54 PM 62.1 °F - 55.9 °F 80% 30.04 in 10.0 mi Variable 5.8 mph - N/A   Scattered Clouds
8:54 PM 61.0 °F - 55.0 °F 81% 30.06 in 10.0 mi Variable 6.9 mph - N/A   Clear
9:54 PM 61.0 °F - 55.9 °F 83% 30.05 in 10.0 mi Variable 4.6 mph - N/A   Mostly Cloudy
10:09 PM 60.8 °F - 55.4 °F 82% 29.95 in 10.0 mi Calm Calm - N/A   Mostly Cloudy
10:54 PM 62.1 °F - 57.0 °F 84% 30.04 in 10.0 mi Variable 4.6 mph - N/A   Overcast
11:54 PM 62.1 °F - 57.9 °F 86% 30.04 in 10.0 mi Calm Calm - N/A   Overcast